This is the latest recevied weather packets stored in our database for station/object WX7EM. If no packets are shown the sender has not sent any weather packets the latest 10 day(s).
| Time | Temp. | Humidity | Pressure | Rain* | Wind** | Luminosity | Snow |
|---|---|---|---|---|---|---|---|
| 1777913272 | 12.78° C | 86% | 1013.7 hPa | 0 mm | - | 125 W/m² | - |
| 1777912970 | 13.33° C | 85% | 1013.6 hPa | 0 mm | - | 119 W/m² | - |
| 1777912665 | 12.78° C | 86% | 1013.6 hPa | 0 mm | - | 115 W/m² | - |
| 1777912362 | 12.78° C | 86% | 1013.5 hPa | 0 mm | - | 114 W/m² | - |
| 1777912058 | 12.78° C | 86% | 1013.5 hPa | 0 mm | - | 107 W/m² | - |
| 1777911754 | 12.78° C | 86% | 1013.5 hPa | 0 mm | - | 104 W/m² | - |
| 1777911451 | 12.78° C | 86% | 1013.5 hPa | 0 mm | - | 108 W/m² | - |
| 1777911148 | 12.78° C | 87% | 1013.6 hPa | 0 mm | - | 111 W/m² | - |
| 1777910845 | 12.78° C | 87% | 1013.6 hPa | 0 mm | - | 94 W/m² | - |
| 1777910542 | 12.78° C | 87% | 1013.7 hPa | 0 mm | - | 86 W/m² | - |
| 1777910239 | 12.78° C | 87% | 1013.7 hPa | 0 mm | - | 86 W/m² | - |
| 1777909936 | 12.78° C | 87% | 1013.8 hPa | 0 mm | - | 86 W/m² | - |
| 1777909633 | 12.78° C | 86% | 1013.6 hPa | 0 mm | - | 85 W/m² | - |
| 1777909330 | 12.78° C | 87% | 1013.4 hPa | 0 mm | - | 92 W/m² | - |
| 1777909028 | 12.78° C | 87% | 1013.4 hPa | 0 mm | - | 90 W/m² | - |
| 1777908725 | 12.78° C | 86% | 1013.5 hPa | 0 mm | - | 95 W/m² | - |
| 1777908422 | 12.78° C | 87% | 1013.5 hPa | 0 mm | - | 85 W/m² | - |
| 1777908119 | 12.78° C | 87% | 1013.3 hPa | 0 mm | - | 86 W/m² | - |
| 1777907815 | 12.78° C | 87% | 1013.1 hPa | 0 mm | - | 76 W/m² | - |
| 1777907510 | 12.78° C | 87% | 1013.1 hPa | 0 mm | - | 74 W/m² | - |
| 1777907207 | 12.22° C | 88% | 1013.2 hPa | 0 mm | - | 66 W/m² | - |
| 1777906904 | 12.78° C | 87% | 1013.3 hPa | 0 mm | - | 66 W/m² | - |
| 1777906601 | 12.78° C | 87% | 1013.2 hPa | 0 mm | - | 65 W/m² | - |
| 1777906297 | 12.22° C | 87% | 1013.2 hPa | 0 mm | - | 60 W/m² | - |
| 1777905994 | 12.22° C | 88% | 1013.3 hPa | 0 mm | - | 63 W/m² | - |
* Rain latest hour (hover to see other rain measurements)
** Current wind speed in m/s (hover to see current wind gust speed)